TimeCET,TemperatureF,Dew PointF,Humidity,Sea Level PressureIn,VisibilityMPH,Wind Direction,Wind SpeedMPH,Gust SpeedMPH,PrecipitationIn,Events,Conditions,WindDirDegrees,DateUTC
12:15 AM,32.0,30.2,93,29.53,1.9,East,4.5,-,N/A,Snow,Light Snow,90,2012-12-04 23:15:00
12:45 AM,32.0,30.2,93,29.53,0.7,East,4.5,-,N/A,Snow,Snow,100,2012-12-04 23:45:00
1:15 AM,32.0,30.2,93,29.53,0.7,East,6.7,-,N/A,Snow,Light Snow,100,2012-12-05 00:15:00
1:45 AM,32.0,30.2,93,29.50,0.9,East,6.7,-,N/A,Snow,Light Snow,100,2012-12-05 00:45:00
2:15 AM,32.0,30.2,93,29.50,0.9,East,4.5,-,N/A,Snow,Light Snow,100,2012-12-05 01:15:00
2:45 AM,32.0,30.2,93,29.50,0.9,East,4.5,-,N/A,Snow,Light Snow,100,2012-12-05 01:45:00
3:15 AM,32.0,30.2,93,29.47,0.9,East,4.5,-,N/A,Snow,Light Snow,80,2012-12-05 02:15:00
3:45 AM,32.0,30.2,93,29.47,0.9,East,4.5,-,N/A,Snow,Light Snow,80,2012-12-05 02:45:00
4:15 AM,32.0,30.2,93,29.47,0.9,East,2.2,-,N/A,Snow,Light Snow,80,2012-12-05 03:15:00
4:45 AM,32.0,30.2,93,29.47,0.9,ENE,2.2,-,N/A,Snow,Light Snow,70,2012-12-05 03:45:00
5:15 AM,32.0,30.2,93,29.47,0.9,North,2.2,-,N/A,Snow,Light Snow,350,2012-12-05 04:15:00
5:45 AM,-9999,-9999,N/A,-9999,1.9,Variable,4.5,-,N/A,,Mostly Cloudy,0,2012-12-05 04:45:00
6:15 AM,32.0,30.2,93,29.50,0.5,NNW,2.2,-,N/A,Fog-Snow,Light Snow,340,2012-12-05 05:15:00
6:45 AM,32.0,30.2,93,29.50,0.6,NNW,2.2,-,N/A,Snow,Light Snow,340,2012-12-05 05:45:00
7:15 AM,32.0,30.2,93,29.50,0.9,North,2.2,-,N/A,Snow,Light Snow,360,2012-12-05 06:15:00
7:45 AM,32.0,30.2,93,29.50,1.2,North,2.2,-,N/A,Snow,Light Snow,360,2012-12-05 06:45:00
8:15 AM,32.0,30.2,93,29.50,1.6,NNE,2.2,-,N/A,Snow,Light Snow,20,2012-12-05 07:15:00
8:45 AM,-9999,-9999,N/A,-9999,3.1,NNW,4.5,-,N/A,,Mostly Cloudy,340,2012-12-05 07:45:00
9:15 AM,32.0,30.2,93,29.53,1.2,NW,2.2,-,N/A,Snow,Light Snow,310,2012-12-05 08:15:00
9:45 AM,32.0,30.2,93,29.53,1.2,NNW,2.2,-,N/A,Snow,Light Snow,330,2012-12-05 08:45:00
9:55 AM,32.0,30.2,93,29.53,1.9,NNW,2.2,-,N/A,Snow,Light Snow,330,2012-12-05 08:55:00
10:15 AM,32.0,32.0,100,29.53,1.9,NNW,2.2,-,N/A,Snow,Light Snow,330,2012-12-05 09:15:00
10:45 AM,32.0,30.2,93,29.56,1.9,NNW,4.5,-,N/A,,Mostly Cloudy,330,2012-12-05 09:45:00
11:15 AM,32.0,30.2,93,29.53,1.9,NNW,4.5,-,N/A,,Mostly Cloudy,330,2012-12-05 10:15:00
11:45 AM,-9999,-9999,N/A,-9999,3.1,NNW,4.5,-,N/A,,Mostly Cloudy,330,2012-12-05 10:45:00
12:15 PM,32.0,30.2,93,29.56,2.5,NW,6.7,-,N/A,,Mostly Cloudy,320,2012-12-05 11:15:00
12:45 PM,33.8,30.2,87,29.56,3.1,NW,6.7,-,N/A,,Mostly Cloudy,320,2012-12-05 11:45:00
1:15 PM,33.8,30.2,87,29.56,5.0,NW,4.5,-,N/A,,Mostly Cloudy,320,2012-12-05 12:15:00
1:45 PM,32.0,30.2,93,29.59,5.0,NW,6.7,-,N/A,,Mostly Cloudy,310,2012-12-05 12:45:00
3:45 PM,32.0,30.2,93,29.59,3.7,West,4.5,-,N/A,,Mostly Cloudy,270,2012-12-05 14:45:00
3:58 PM,32.0,30.2,93,29.59,3.7,West,6.7,-,N/A,,Mostly Cloudy,270,2012-12-05 14:58:00
4:15 PM,32.0,30.2,93,29.59,3.7,West,6.7,-,N/A,,Mostly Cloudy,270,2012-12-05 15:15:00
4:19 PM,32.0,30.2,93,29.59,3.7,West,6.7,-,N/A,,Mostly Cloudy,280,2012-12-05 15:19:00
4:45 PM,32.0,30.2,93,29.59,3.7,West,6.7,-,N/A,,Unknown,270,2012-12-05 15:45:00
5:15 PM,32.0,30.2,93,29.62,3.7,West,4.5,-,N/A,,Unknown,280,2012-12-05 16:15:00
5:45 PM,-9999,-9999,N/A,-9999,1.9,WNW,4.5,-,N/A,Fog,Scattered Clouds,300,2012-12-05 16:45:00
6:00 PM,-9999,-9999,N/A,-9999,3.1,NNW,4.5,-,N/A,,Clear,330,2012-12-05 17:00:00
6:15 PM,32.0,30.2,93,29.62,3.1,West,2.2,-,N/A,,Scattered Clouds,270,2012-12-05 17:15:00
6:45 PM,30.2,30.2,100,29.62,2.2,West,2.2,-,N/A,,Scattered Clouds,260,2012-12-05 17:45:00
6:58 PM,30.2,28.4,93,29.65,1.9,Calm,Calm,-,N/A,,Scattered Clouds,0,2012-12-05 17:58:00
7:15 PM,30.2,28.4,93,29.65,0.9,SW,2.2,-,N/A,,Scattered Clouds,220,2012-12-05 18:15:00
7:45 PM,28.4,28.4,100,29.65,0.4,SW,2.2,-,N/A,Fog,Light Freezing Fog,220,2012-12-05 18:45:00
8:00 PM,-9999,-9999,N/A,-9999,0.5,Variable,4.5,-,N/A,Fog,Light Freezing Fog,0,2012-12-05 19:00:00
8:15 PM,28.4,28.4,100,29.65,0.1,WSW,2.2,-,N/A,Fog,Light Freezing Fog,250,2012-12-05 19:15:00
8:45 PM,-9999,-9999,N/A,-9999,0.1,Variable,4.5,-,N/A,Fog,Light Freezing Fog,0,2012-12-05 19:45:00
9:15 PM,28.4,26.6,93,29.65,0.1,NW,2.2,-,N/A,Fog,Light Freezing Fog,310,2012-12-05 20:15:00
9:45 PM,26.6,26.6,100,29.68,0.2,NW,2.2,-,N/A,Fog,Light Freezing Fog,310,2012-12-05 20:45:00
10:15 PM,28.4,26.6,93,29.68,0.1,Calm,Calm,-,N/A,Fog,Light Freezing Fog,0,2012-12-05 21:15:00
10:45 PM,26.6,26.6,100,29.68,0.1,Calm,Calm,-,N/A,Fog,Light Freezing Fog,0,2012-12-05 21:45:00
11:15 PM,26.6,26.6,100,29.71,0.1,Calm,Calm,-,N/A,Fog,Light Freezing Fog,0,2012-12-05 22:15:00
11:45 PM,-9999,-9999,N/A,-9999,0.5,North,-9999.0,-,N/A,Fog,Light Freezing Fog,0,2012-12-05 22:45:00